Flag for West Bank Weather past 2 weeks in Bethlehem, West Bank

Now
54 °F

Clear.


Feels Like: 53 °F
Forecast: 45 / 54 °F
Wind: 5 mph from Southeast

Location: Ben Gurion International Airport

Current Time: Dec 21, 2014 at 5:39:03 AM

Latest Report: Dec 21, 2014 at 4:50 AM


Visibility: 10 mi

Pressure: 30.09 "Hg

Humidity: 94%

Dew point: 52 °F

Location of BethlehemLocation

Historic Weather in Bethlehem — Graph

°F

Bethlehem temperature yesterday

Maximum temperature yesterday: 70 °F (at 11:20 AM)
Minimum temperature yesterday: 54 °F (at 5:20 AM)
Average temperature yesterday: 60 °F

Past Weeks' High & Low Weather Summary

 TemperatureHumidityPressure
High79 °F (Dec 11, 12:50 PM)94% (Dec 8, 3:50 AM)30.24 "Hg (Dec 8, 3:50 AM)
Low48 °F (Dec 16, 6:20 AM)35% (Dec 13, 11:50 AM)29.77 "Hg (Dec 9, 1:50 AM)
Average63 °F71%30.06 "Hg
* Reported Dec 6 4:20 AM — Dec 21 4:20 AM, Bethlehem, Weather by CustomWeather, © 2014

Note: Actual official high and low records may vary slightly from our data, if they occured in-between our weather recording intervals... More about our weather records

Advertising

Bethlehem weather history for previous 24 hours

 ConditionsComfort  
Time TempWeatherWind HumidityBarometerVisibility
4:20 AM
Dec 21
54 °FClear.6 mph94%30.09 "Hg10 mi
3:50 AM55 °FClear.5 mph88%30.09 "Hg10 mi
3:20 AM55 °FClear.5 mph94%30.12 "Hg10 mi
2:20 AM57 °FPassing clouds.2 mph88%30.12 "HgN/A
1:50 AM55 °FRain. Passing clouds.3 mph94%30.12 "HgN/A
1:20 AM55 °FClear.5 mph94%30.12 "Hg10 mi
12:50 AM55 °FClear.2 mph94%30.12 "Hg10 mi
12:20 AM57 °FClear.6 mph88%30.12 "Hg10 mi
11:20 PM
Dec 20
57 °FPassing clouds.5 mph88%30.12 "HgN/A
10:50 PM57 °FRain. Passing clouds.7 mph88%30.12 "Hg6 mi
10:20 PM57 °FPassing clouds.6 mph88%30.12 "HgN/A
9:50 PM57 °FPassing clouds.8 mph88%30.12 "HgN/A
9:20 PM57 °FRain. Passing clouds.7 mph88%30.12 "HgN/A
8:50 PM59 °FPassing clouds.6 mph88%30.12 "HgN/A
8:20 PM59 °FPassing clouds.6 mph88%30.12 "HgN/A
7:50 PM59 °FPassing clouds.3 mph88%30.12 "HgN/A
7:20 PM59 °FPassing clouds.2 mph88%30.12 "HgN/A
6:50 PM61 °FPassing clouds.1 mph83%30.12 "HgN/A
6:20 PM61 °FPassing clouds.5 mph77%30.12 "HgN/A
5:50 PM61 °FPassing clouds.3 mph83%30.12 "HgN/A
5:20 PM61 °FPassing clouds.5 mph77%30.09 "HgN/A
4:50 PM61 °FLight rain. Passing clouds.8 mph77%30.09 "HgN/A
4:20 PM64 °FLight rain. Scattered clouds.13 mph68%30.09 "HgN/A
3:50 PM66 °FScattered clouds.7 mph64%30.09 "HgN/A
3:20 PM66 °FPassing clouds.8 mph64%30.09 "HgN/A
2:20 PM68 °FPassing clouds.9 mph56%30.07 "HgN/A
1:20 PM68 °FScattered clouds.10 mph60%30.07 "HgN/A
12:50 PM66 °FScattered clouds.10 mph64%30.07 "HgN/A
12:20 PM66 °FScattered clouds.9 mph64%30.09 "HgN/A
11:50 AM68 °FScattered clouds.8 mph60%30.09 "HgN/A
11:20 AM70 °FScattered clouds.3 mph57%30.09 "HgN/A
10:50 AM68 °FScattered clouds.5 mph60%30.12 "HgN/A
10:20 AM68 °FScattered clouds.2 mph69%30.12 "HgN/A
9:50 AM68 °FScattered clouds.2 mph69%30.12 "HgN/A
9:20 AM64 °FPassing clouds.1 mph78%30.12 "HgN/A
8:50 AM59 °FPassing clouds.2 mph88%30.12 "HgN/A
8:20 AM57 °FPassing clouds.3 mph88%30.12 "HgN/A
7:50 AM55 °FPassing clouds.5 mph94%30.12 "Hg6 mi
7:20 AM54 °FPassing clouds.5 mph94%30.12 "Hg5 mi
6:50 AM54 °FPassing clouds.2 mph94%30.12 "Hg5 mi
6:20 AM54 °FPassing clouds.2 mph94%30.12 "Hg6 mi
5:50 AM54 °FPassing clouds.2 mph94%30.09 "Hg6 mi
5:20 AM54 °FPassing clouds.2 mph94%30.09 "Hg5 mi
Weather by CustomWeather, © 2014

See weather overviewHow to use our weather pages